Tracking 28335 objects as of 4-Dec-2023
HD Live streaming from Space Station
objects crossing your sky now

O3B FM2

Track O3B FM2 now!
10-day predictions
O3B FM2 is classified as:


NORAD ID: 39190
Int'l Code: 2013-031C
Perigee: 8,068.9 km
Apogee: 8,077.1 km
Inclination: 0.1 °
Period: 287.9 minutes
Semi major axis: 14444 km
RCS: Unknown
Launch date: June 25, 2013
Source: O3b Networks (O3B)
Launch site: FRENCH GUIANA (FRGUI)

O3b satellites will reach customers across the planet between 45 degrees north and south latitude. O3b offers the benefits of fiber-optic lines without the costs to maintain them.
Your satellite tracking list
Your tracking list is empty




NASA's NSSDC Master Catalog

Two Line Element Set (TLE):
1 39190U 13031C   23337.33266443 -.00000022  00000-0  00000-0 0  9994
2 39190   0.0664   9.1235 0002827 241.2480 109.6009  5.00115436190741
Source of the keplerian elements: AFSPC